Flag for Germany Weather past 2 weeks in Maintal, Hesse, Germany

Now
64 °F

Overcast.


Feels Like: 64 °F
Forecast: 54 / 70 °F
Wind: 7 mph from Southwest

Location: Frankfurt / M-Flughafen

Current Time: Jul 29, 2015 at 12:27:29 AM

Latest Report: Jul 28, 2015 at 11:00 PM


Visibility: 28 mi

Pressure: 29.83 "Hg

Humidity: 49%

Dew point: 44 °F

Location of MaintalLocation

Historic Weather in Maintal — Graph

°F

Maintal temperature yesterday

Maximum temperature yesterday: 71 °F (at 4:00 PM)
Minimum temperature yesterday: 60 °F (at 6:00 AM)
Average temperature yesterday: 65 °F

Past Weeks' High & Low Weather Summary

 TemperatureHumidityPressure
High95 °F (Jul 17, 6:00 PM)98% (Jul 18, 4:00 AM)30.14 "Hg (Jul 18, 4:00 AM)
Low51 °F (Jul 26, 7:00 AM)23% (Jul 17, 4:00 PM)29.63 "Hg (Jul 27, 8:00 AM)
Average73 °F61%29.91 "Hg
* Reported Jul 13 10:00 PM — Jul 28 10:00 PM, Maintal, Weather by CustomWeather, © 2015

Note: Actual official high and low records may vary slightly from our data, if they occured in-between our weather recording intervals... More about our weather records

Advertising

Maintal weather history for previous 24 hours

 ConditionsComfort  
Time TempWeatherWind HumidityBarometerVisibility
10:00 PM
Tue, Jul 28
65 °FOvercast.7 mph46%29.82 "Hg28 mi
9:00 PM66 °FOvercast.9 mph44%29.81 "Hg31 mi
8:00 PM67 °FOvercast.9 mph41%29.80 "Hg31 mi
7:00 PM67 °FOvercast.10 mph40%29.79 "Hg31 mi
6:00 PM68 °FOvercast.10 mph38%29.79 "Hg37 mi
5:00 PM69 °FOvercast.12 mph36%29.79 "Hg37 mi
4:00 PM71 °FPartly sunny.12 mph31%29.77 "Hg37 mi
3:00 PM69 °FPartly sunny.10 mph34%29.78 "Hg37 mi
2:00 PM70 °FPartly sunny.12 mph32%29.78 "Hg37 mi
1:00 PM68 °FOvercast.10 mph37%29.78 "Hg37 mi
12:00 PM67 °FOvercast.13 mph40%29.78 "Hg37 mi
10:00 AM64 °FScattered clouds.12 mph49%29.80 "Hg34 mi
9:00 AM62 °FPartly sunny.12 mph59%29.78 "Hg31 mi
8:00 AM62 °FPartly sunny.7 mph68%29.77 "Hg34 mi
7:00 AM60 °FPartly sunny.8 mph65%29.77 "Hg34 mi
6:00 AM60 °FPartly sunny.3 mph84%29.74 "Hg31 mi
5:00 AM60 °FOvercast.5 mph87%29.74 "Hg28 mi
4:00 AM61 °FSprinkles. Overcast.7 mph80%29.73 "Hg9 mi
3:00 AM65 °FOvercast.6 mph62%29.72 "Hg31 mi
2:00 AM64 °FOvercast.5 mph66%29.72 "Hg34 mi
1:00 AM63 °FMild.6 mph68%29.72 "HgN/A
Weather by CustomWeather, © 2015

See weather overviewHow to use our weather pages